Home > Time Zones > World Clock > Weather > Palau > Koror > Past weeks

Flag for Palau Weather past 2 weeks in Koror, Palau

Now
86 °F

Broken clouds.


Feels Like: 97 °F
Forecast: 77 / 90 °F
Wind: 6 mph from East

Location: Koror / Palau Island

Current Time: May 27, 2015 at 3:56:58 PM

Latest Report: May 27, 2015 at 2:50 PM


Visibility: 15 mi

Pressure: 29.80 "Hg

Humidity: 75%

Dew point: 77 °F

Location of KororLocation

Historic Weather in Koror — Graph

°F

Koror temperature yesterday

Maximum temperature yesterday: 86 °F (at 9:55 AM)
Minimum temperature yesterday: 75 °F (at 12:50 AM)
Average temperature yesterday: 80 °F

Past Weeks' High & Low Weather Summary

 TemperatureHumidityPressure
High90 °F (May 14, 12:50 PM)100% (May 19, 8:50 PM)29.96 "Hg (May 19, 8:50 PM)
Low75 °F (May 17, 2:50 AM)55% (May 21, 1:50 PM)29.75 "Hg (May 16, 2:50 PM)
Average82 °F83%29.86 "Hg
* Reported May 12 2:50 PM — May 27 2:50 PM, Koror, Weather by CustomWeather, © 2015

Note: Actual official high and low records may vary slightly from our data, if they occured in-between our weather recording intervals... More about our weather records

Advertising

Koror weather history for previous 24 hours

 ConditionsComfort  
Time TempWeatherWind HumidityBarometerVisibility
2:50 PM
Wed, May 27
86 °FBroken clouds.6 mph75%29.80 "Hg15 mi
1:50 PM86 °FBroken clouds.No wind70%29.82 "Hg15 mi
12:50 PM81 °FPartly sunny.3 mph89%29.84 "Hg14 mi
11:50 AM82 °FSprinkles. Partly sunny.8 mph84%29.86 "Hg13 mi
10:50 AM84 °FSprinkles. Partly sunny.5 mph79%29.87 "Hg12 mi
9:50 AM88 °FBroken clouds.6 mph70%29.88 "Hg15 mi
8:50 AM86 °FBroken clouds.3 mph75%29.89 "Hg15 mi
7:52 AM82 °FBroken clouds.No wind84%29.88 "Hg15 mi
6:50 AM79 °FBroken clouds.No wind89%29.87 "Hg15 mi
5:54 AM77 °FBroken clouds.No wind94%29.86 "Hg15 mi
4:55 AM75 °FPartly cloudy.No wind100%29.86 "Hg14 mi
3:50 AM77 °FPartly cloudy.No wind94%29.85 "Hg14 mi
2:53 AM77 °FPartly cloudy.5 mph94%29.85 "Hg14 mi
1:51 AM77 °FPartly cloudy.3 mph94%29.86 "Hg14 mi
12:50 AM77 °FPartly cloudy.5 mph94%29.88 "Hg14 mi
11:50 PM
Tue, May 26
79 °FPartly cloudy.No wind89%29.89 "Hg14 mi
10:50 PM79 °FPartly cloudy.No wind94%29.90 "Hg14 mi
9:54 PM77 °FPartly cloudy.No wind94%29.90 "Hg15 mi
8:50 PM79 °FPartly cloudy.No wind94%29.90 "Hg15 mi
7:53 PM79 °FPartly cloudy.No wind94%29.89 "Hg15 mi
6:55 PM81 °FPartly cloudy.No wind89%29.87 "Hg15 mi
5:55 PM84 °FBroken clouds.No wind79%29.85 "Hg15 mi
4:55 PM86 °FBroken clouds.6 mph75%29.85 "Hg15 mi
3:50 PM86 °FBroken clouds.7 mph75%29.84 "Hg15 mi
Weather by CustomWeather, © 2015

See weather overviewHow to use our weather pages